Temp
11 11 11 10 10 9 9 9 9 9 9 9 9 9 9 10 10 9 8 8 8 8 8 7 7 7 7 9 10 10 10 11 11 11 11 10 10 9 9 9 10 10 10
11 11 11 10 9 9 8 8 9 8 8 8 8 9 9 9 9 8 8 7 7 6 6 7 6 7 8 9 9 10 10 10 10 10 11 10 9 9 8 8 9 10 10
11 11 10 10 9 9 8 8 7 8 9 8 8 8 8 8 8 7 7 8 8 7 6 5 5 7 9 9 9 9 9 9 9 10 10 9 9 9 8 8 9 9 9
11 11 10 10 9 9 8 7 8 8 8 8 9 8 7 7 6 7 8 8 7 7 7 7 6 8 8 8 8 9 9 9 9 9 9 9 9 8 8 8 8 8 9
11 11 10 9 9 8 8 8 9 9 9 9 8 8 8 8 7 7 7 7 7 6 6 6 6 6 7 7 7 7 8 8 8 8 9 9 8 8 7 6 6 7 8
11 10 9 9 9 8 8 9 9 9 8 8 8 8 7 7 7 7 6 6 5 5 5 5 5 5 5 6 6 6 6 6 7 7 7 8 7 7 7 6 6 6 7
10 9 9 9 9 10 10 9 9 8 8 8 7 7 7 6 6 5 5 4 4 4 4 4 4 4 4 3 4 5 5 5 5 5 5 6 6 6 6 6 6 6 6
10 9 9 9 9 9 9 8 8 8 7 7 7 6 6 5 5 5 4 4 4 4 3 3 4 3 3 2 2 2 3 3 4 4 4 4 4 4 4 5 5 5 5
9 9 9 8 8 8 8 7 7 7 7 7 6 6 5 5 4 4 4 4 4 3 3 3 2 2 3 3 2 2 2 2 3 3 3 3 3 3 3 3 3 4 4
8 8 8 8 8 7 7 7 7 6 6 5 5 5 5 5 4 4 4 4 3 3 3 3 2 3 2 2 2 2 2 2 2 3 3 3 2 3 3 3 3 3 4
7 8 8 8 8 8 7 6 6 6 6 5 5 5 5 5 5 4 3 3 3 3 2 2 2 2 2 2 1 1 1 1 1 1 2 2 2 2 3 3 2 2 2
8 8 8 7 7 7 6 6 6 6 6 5 4 4 4 4 4 3 2 2 2 2 2 2 2 2 2 1 1 1 1 1 1 1 1 1 1 2 2 2 2 2 1
8 7 7 7 7 7 7 6 6 5 5 5 4 5 4 4 3 3 3 2 1 1 1 1 1 1 1 1 0 1 1 1 1 1 1 1 1 1 2 2 2 1 1
7 8 8 7 7 7 6 6 5 5 5 4 4 4 4 3 2 2 2 2 1 1 0 0 0 0 -0 -0 0 0 0 1 1 1 1 1 1 1 1 2 2 2 1
8 8 8 7 6 5 5 5 5 4 4 4 3 3 3 2 2 1 1 1 -0 -0 -0 -0 -1 -1 -1 -1 -1 -1 -0 -0 0 0 0 0 1 1 1 1 2 2 1
8 8 7 6 5 5 4 5 4 4 3 3 3 3 2 2 1 1 0 0 -0 -1 -1 -1 -1 -1 -1 -1 -1 -1 -1 -1 -0 -0 -0 0 0 0 0 0 1 1 0
7 6 5 5 5 5 4 4 4 3 3 3 3 2 2 1 1 0 -0 -1 -1 -2 -2 -2 -2 -2 -2 -2 -2 -2 -1 -1 -1 -1 -0 -0 -0 0 0 0 0 0 0
5 5 5 5 4 4 4 4 3 3 3 2 2 2 1 1 0 -0 -1 -1 -2 -2 -2 -2 -2 -3 -2 -2 -2 -2 -2 -2 -2 -1 -1 -1 -0 -0 -0 -0 -0 -0 -1
5 4 5 5 4 4 3 3 3 3 2 2 1 1 0 0 -0 -1 -1 -1 -2 -2 -2 -3 -3 -3 -3 -3 -3 -3 -3 -2 -2 -2 -2 -1 -1 -1 -1 -1 -1 -1 -1
5 5 5 4 4 3 3 3 2 2 2 1 1 1 0 0 -1 -1 -1 -2 -2 -2 -3 -3 -4 -4 -4 -4 -4 -4 -3 -3 -3 -2 -2 -2 -2 -2 -2 -2 -2 -1 -1
5 5 5 4 3 3 3 2 2 1 1 1 1 0 -0 -1 -1 -2 -2 -2 -3 -3 -4 -4 -5 -5 -4 -5 -5 -5 -4 -4 -4 -3 -3 -3 -2 -2 -2 -2 -2 -2 -2
5 5 4 4 3 3 2 1 1 1 0 0 -0 -1 -1 -2 -2 -2 -3 -3 -4 -4 -4 -5 -5 -5 -5 -6 -6 -6 -6 -5 -4 -4 -3 -3 -3 -3 -3 -3 -3 -2 -2
5 5 4 3 3 2 2 1 1 1 0 -0 -1 -1 -1 -2 -2 -3 -3 -4 -4 -4 -5 -5 -5 -6 -6 -6 -6 -6 -6 -6 -6 -5 -5 -4 -4 -4 -4 -4 -4 -3 -3
5 4 3 3 2 2 1 1 -0 -1 -1 -1 -2 -2 -2 -3 -3 -3 -4 -4 -4 -5 -5 -5 -5 -6 -6 -6 -6 -6 -6 -6 -7 -7 -6 -6 -5 -5 -5 -5 -5 -4 -4
5 5 3 3 2 2 1 0 -0 -1 -1 -2 -2 -2 -2 -3 -3 -3 -4 -4 -4 -5 -5 -5 -5 -6 -6 -6 -6 -6 -7 -7 -7 -7 -8 -7 -7 -6 -5 -5 -5 -5 -4
5 5 3 2 2 1 1 0 -1 -1 -2 -2 -2 -2 -3 -3 -3 -4 -4 -4 -5 -5 -5 -5 -5 -6 -6 -6 -6 -7 -7 -8 -8 -8 -8 -8 -7 -7 -6 -6 -6 -5 -5
Height
1558 1559 1561 1561 1559 1559 1558 1557 1556 1555 1554 1553 1553 1551 1551 1549 1548 1548 1547 1546 1545 1544 1542 1540 1537 1535 1530 1528 1527 1525 1524 1523 1522 1520 1519 1518 1517 1518 1516 1517 1517 1515 1514
1557 1559 1562 1562 1561 1560 1559 1558 1557 1556 1555 1554 1553 1552 1551 1550 1549 1548 1547 1546 1544 1543 1542 1538 1536 1532 1529 1528 1526 1523 1522 1521 1520 1518 1516 1515 1513 1512 1514 1516 1515 1514 1513
1556 1559 1561 1563 1563 1562 1561 1559 1558 1557 1556 1555 1554 1553 1551 1550 1549 1547 1546 1544 1542 1541 1539 1537 1534 1531 1529 1527 1525 1522 1521 1520 1518 1516 1514 1512 1510 1511 1513 1514 1514 1513 1513
1557 1558 1561 1562 1564 1563 1562 1560 1559 1558 1557 1556 1555 1553 1552 1551 1549 1547 1545 1543 1541 1539 1537 1535 1532 1530 1527 1525 1523 1520 1519 1518 1517 1514 1512 1510 1509 1510 1511 1513 1512 1512 1512
1558 1559 1561 1562 1564 1563 1561 1560 1559 1558 1557 1556 1555 1553 1552 1550 1549 1547 1545 1543 1541 1538 1536 1533 1530 1528 1525 1523 1521 1518 1516 1515 1514 1511 1509 1509 1507 1509 1510 1509 1509 1510 1510
1558 1559 1561 1562 1563 1563 1561 1560 1560 1559 1558 1557 1556 1554 1552 1550 1548 1546 1544 1542 1540 1537 1535 1532 1529 1526 1523 1521 1519 1516 1514 1512 1511 1509 1507 1507 1507 1508 1508 1508 1508 1508 1508
1559 1560 1561 1563 1564 1564 1563 1562 1560 1559 1558 1557 1556 1554 1552 1550 1548 1546 1543 1541 1539 1537 1534 1531 1528 1525 1523 1520 1518 1515 1513 1512 1510 1508 1506 1506 1506 1506 1506 1507 1506 1505 1505
1560 1562 1563 1565 1565 1565 1565 1563 1562 1560 1559 1557 1555 1554 1552 1550 1548 1545 1543 1540 1539 1536 1533 1530 1527 1524 1522 1521 1518 1516 1513 1511 1509 1507 1506 1505 1505 1504 1504 1504 1504 1503 1503
1563 1564 1564 1565 1566 1566 1566 1564 1562 1561 1559 1557 1555 1553 1551 1549 1548 1545 1543 1542 1538 1536 1533 1529 1527 1524 1523 1521 1517 1514 1513 1510 1507 1506 1505 1503 1503 1503 1503 1502 1501 1501 1500
1565 1565 1565 1567 1567 1566 1566 1564 1562 1561 1558 1556 1554 1553 1552 1550 1548 1545 1543 1540 1537 1534 1531 1528 1526 1525 1522 1519 1516 1514 1511 1508 1506 1504 1502 1502 1501 1502 1501 1500 1499 1498 1497
1566 1566 1567 1568 1568 1566 1566 1564 1562 1560 1558 1557 1554 1553 1551 1548 1546 1543 1541 1537 1534 1531 1528 1526 1524 1522 1519 1516 1513 1512 1509 1506 1504 1502 1500 1499 1499 1498 1498 1497 1496 1494 1494
1566 1566 1567 1568 1567 1567 1567 1565 1561 1559 1556 1555 1554 1552 1549 1547 1543 1540 1537 1534 1531 1528 1526 1524 1522 1519 1516 1513 1510 1508 1506 1503 1501 1500 1498 1496 1495 1495 1495 1494 1492 1491 1490
1566 1567 1570 1570 1568 1567 1565 1564 1562 1559 1557 1554 1553 1551 1548 1545 1542 1537 1533 1530 1527 1525 1523 1521 1518 1516 1512 1509 1507 1506 1503 1501 1498 1497 1495 1494 1492 1492 1491 1491 1489 1488 1487
1568 1569 1569 1569 1568 1566 1564 1563 1562 1560 1556 1553 1552 1549 1546 1543 1539 1535 1532 1528 1525 1522 1520 1518 1515 1512 1509 1507 1505 1502 1500 1498 1496 1494 1492 1490 1489 1488 1488 1487 1486 1485 1484
1569 1569 1569 1568 1566 1564 1564 1562 1561 1560 1556 1553 1550 1548 1544 1541 1537 1533 1530 1526 1524 1521 1519 1516 1513 1510 1507 1504 1502 1499 1496 1494 1493 1490 1488 1487 1485 1484 1484 1482 1482 1481 1481
1569 1569 1568 1567 1565 1564 1563 1561 1561 1559 1554 1552 1549 1546 1543 1540 1537 1533 1529 1525 1522 1520 1517 1514 1510 1507 1504 1501 1498 1495 1492 1490 1488 1486 1484 1482 1481 1479 1479 1478 1478 1477 1476
1569 1569 1570 1566 1566 1565 1563 1561 1559 1557 1554 1551 1548 1546 1542 1538 1535 1531 1528 1524 1521 1518 1514 1511 1508 1504 1501 1497 1494 1491 1488 1486 1484 1482 1480 1478 1476 1475 1475 1474 1474 1474 1473
1568 1568 1571 1570 1567 1565 1563 1561 1558 1556 1553 1551 1549 1545 1541 1538 1534 1530 1526 1523 1520 1516 1512 1508 1504 1500 1497 1493 1490 1487 1485 1482 1481 1479 1477 1474 1472 1471 1470 1470 1469 1469 1468
1570 1569 1571 1570 1568 1565 1562 1560 1557 1555 1553 1550 1547 1544 1540 1537 1533 1529 1525 1521 1517 1513 1509 1504 1500 1496 1492 1489 1485 1483 1480 1478 1477 1475 1473 1472 1470 1468 1467 1466 1466 1465 1464
1570 1570 1571 1570 1567 1564 1561 1559 1556 1554 1552 1550 1546 1543 1540 1535 1531 1527 1524 1520 1515 1510 1505 1500 1496 1492 1489 1485 1480 1477 1475 1473 1472 1470 1469 1468 1466 1465 1463 1462 1461 1460 1460
1571 1572 1571 1570 1567 1563 1560 1557 1555 1554 1551 1549 1546 1542 1538 1534 1529 1525 1521 1517 1512 1506 1501 1497 1492 1488 1484 1480 1475 1470 1468 1467 1466 1465 1464 1462 1461 1459 1459 1458 1457 1456 1455
1572 1571 1571 1569 1567 1563 1560 1557 1555 1553 1550 1548 1545 1541 1537 1532 1528 1524 1519 1514 1509 1503 1499 1494 1490 1485 1481 1478 1473 1469 1463 1460 1460 1459 1458 1456 1455 1454 1453 1452 1451 1451 1450
1573 1572 1571 1569 1567 1564 1561 1558 1555 1552 1550 1546 1542 1539 1535 1531 1527 1522 1517 1511 1507 1501 1496 1492 1487 1483 1478 1475 1472 1469 1463 1460 1456 1453 1452 1451 1450 1449 1447 1446 1446 1445 1444
1573 1573 1571 1570 1567 1564 1561 1557 1554 1552 1549 1546 1542 1539 1534 1530 1525 1520 1514 1510 1504 1499 1494 1489 1485 1481 1477 1472 1469 1467 1464 1461 1455 1448 1446 1444 1443 1442 1441 1440 1439 1438 1438
1574 1573 1572 1570 1567 1564 1561 1558 1555 1552 1549 1546 1542 1537 1532 1528 1523 1517 1512 1507 1502 1497 1492 1487 1482 1478 1474 1470 1466 1461 1457 1454 1451 1447 1438 1437 1436 1435 1434 1432 1431 1431 1431
1573 1573 1572 1570 1567 1565 1562 1558 1555 1552 1548 1544 1540 1535 1530 1525 1520 1514 1509 1504 1499 1494 1489 1484 1479 1474 1470 1465 1461 1456 1451 1445 1440 1439 1435 1431 1428 1427 1427 1426 1424 1424 1424
Wind_Speed
13 10 5 7 6 4 6 4 3 9 9 9 9 10 10 10 11 11 12 11 13 14 13 15 15 15 16 17 16 13 11 9 8 8 7 8 7 5 8 7 9 8 9
13 9 5 7 3 3 6 3 7 10 10 9 9 9 11 11 11 12 11 11 12 14 15 15 15 15 16 16 17 16 14 11 8 8 8 6 7 7 8 9 9 10 11
12 9 5 7 3 6 4 4 9 6 8 10 10 11 11 11 11 10 12 13 14 15 15 16 16 17 17 18 18 17 15 13 10 7 6 5 8 12 12 9 10 11 14
11 7 5 6 5 6 5 5 6 8 8 9 10 11 11 11 10 12 15 16 15 15 16 17 18 19 19 19 19 18 17 14 11 9 7 7 6 4 12 10 11 13 14
10 8 9 8 5 4 3 3 3 7 9 9 10 11 12 12 14 14 15 15 15 18 20 20 20 21 20 19 19 18 17 15 11 10 11 9 4 3 7 6 6 9 13
11 13 10 6 1 1 2 7 8 9 10 11 12 13 13 13 14 14 17 19 21 23 23 22 20 20 20 18 16 15 16 15 10 9 9 6 3 4 5 5 7 9 11
15 12 7 3 1 4 7 7 8 10 11 13 15 14 15 16 17 20 20 24 23 25 24 24 16 17 16 16 16 15 16 12 9 7 9 0 3 1 4 7 10 8 8
9 8 3 4 6 7 9 10 11 12 12 15 17 16 18 20 20 19 21 25 23 24 25 25 16 19 18 20 18 18 17 13 10 8 10 3 6 5 5 5 7 10 9
9 9 12 11 8 10 12 13 13 13 14 15 14 15 20 20 15 17 16 19 21 20 22 21 17 19 19 17 17 19 19 14 14 11 12 10 7 8 8 8 6 7 10
14 13 11 9 9 9 9 11 11 13 13 10 13 14 16 18 18 18 18 18 16 17 21 18 13 15 16 18 18 19 19 21 19 18 17 11 8 12 11 12 12 11 11
13 8 5 4 5 6 11 13 10 9 8 7 8 15 17 21 23 24 24 20 18 16 13 11 13 18 23 23 21 21 17 19 20 22 17 13 13 11 13 14 13 14 14
11 8 4 3 4 5 5 6 8 7 8 5 9 11 16 21 26 25 19 18 17 17 14 16 18 21 23 21 21 19 16 15 17 20 21 17 16 15 14 15 16 16 17
15 13 8 3 2 5 4 4 9 10 9 9 13 18 20 24 27 27 24 20 15 14 15 19 21 22 23 20 21 18 18 16 15 14 18 21 17 15 15 16 16 17 16
17 9 3 2 4 6 5 7 9 13 15 15 18 17 23 27 28 29 22 19 14 17 20 23 25 20 18 20 21 22 21 21 16 16 17 18 18 15 15 15 16 16 16
12 4 2 3 6 10 11 11 11 12 14 17 17 21 25 26 28 26 25 18 13 18 22 23 16 18 20 22 24 25 23 21 16 16 18 19 20 19 18 17 15 15 13
6 2 3 7 10 9 9 9 10 10 12 12 15 20 24 25 28 25 27 19 15 20 23 15 18 19 22 26 26 17 15 13 15 16 18 18 16 17 16 12 12 13 14
3 9 9 11 10 7 7 10 6 9 9 15 18 21 23 27 28 28 29 23 20 25 21 20 22 24 23 18 19 20 17 17 18 17 17 16 17 14 14 13 15 16 15
10 11 11 9 7 2 5 8 8 9 11 13 13 15 20 23 25 27 29 25 24 26 27 28 28 21 20 20 22 21 17 18 17 17 19 16 14 13 12 12 11 10 11
10 9 6 11 11 8 10 10 9 6 9 8 12 14 17 22 22 23 23 25 26 26 29 32 25 21 23 22 22 21 21 20 19 19 16 11 6 10 9 6 8 12 13
9 6 9 15 17 15 11 11 6 4 6 9 12 16 20 24 22 23 23 24 26 31 33 28 22 20 22 26 28 28 26 24 20 16 18 13 11 11 13 9 8 12 14
7 5 10 17 21 20 17 14 8 8 9 11 15 19 21 20 22 22 25 28 31 32 29 22 24 26 27 28 30 30 28 21 18 19 14 16 17 15 15 19 16 14 15
4 6 12 18 21 23 18 16 13 11 10 12 16 18 23 21 20 26 28 30 29 33 25 24 24 25 26 26 25 23 17 27 9 19 22 16 15 14 14 15 16 19 20
2 8 13 16 17 22 20 18 16 14 13 17 21 23 25 22 24 26 29 27 32 28 27 25 23 25 27 26 20 20 15 8 28 20 22 11 12 18 21 17 17 18 20
4 9 11 13 16 21 22 21 18 19 19 20 21 23 23 25 27 27 26 27 28 27 25 24 25 25 24 22 21 20 23 27 20 18 14 26 25 22 21 20 20 21 21
4 9 10 11 15 18 21 20 17 19 18 20 22 24 24 27 27 26 27 25 26 25 25 25 25 27 25 25 23 23 27 32 30 24 27 22 25 24 22 22 21 21 21
3 10 9 10 12 15 21 18 16 21 20 20 23 23 27 28 27 27 25 24 24 24 24 26 26 26 29 29 28 32 38 37 30 26 25 29 29 26 19 17 14 14 17
Wind_Direction
159 143 159 166 199 139 118 131 57 83 70 63 56 49 39 31 27 23 35 30 26 14 10 11 4 2 356 348 343 344 342 337 318 307 285 261 268 281 282 285 303 309 306
152 140 175 180 197 109 115 102 80 81 77 63 49 40 39 24 16 21 20 13 8 8 2 0 359 348 342 340 337 338 339 335 329 302 278 249 238 256 258 268 294 311 318
144 156 167 183 163 120 128 102 93 82 59 60 53 45 34 23 25 8 6 358 352 351 355 354 349 339 336 333 331 329 329 328 329 309 266 238 272 267 232 271 290 302 310
141 152 151 172 148 149 148 113 94 72 57 46 36 28 24 23 18 358 355 351 349 349 345 341 336 333 329 328 327 324 322 321 318 302 257 265 296 188 236 260 278 293 304
137 149 156 149 155 168 155 125 56 50 43 37 26 17 9 3 359 358 357 354 352 349 345 339 333 330 328 326 324 323 322 321 318 304 268 272 305 222 235 264 269 276 297
151 151 154 156 145 267 132 64 54 43 32 21 13 7 3 3 0 355 1 1 352 351 351 346 340 337 334 332 329 330 329 328 329 314 284 250 125 147 250 255 242 262 284
154 160 159 145 35 46 63 59 48 35 26 20 13 12 8 3 357 352 356 0 352 350 351 350 349 349 348 346 341 341 341 338 335 333 347 173 158 29 272 281 277 282 283
156 159 122 83 80 73 57 44 33 32 29 17 15 3 357 357 353 353 352 353 348 345 347 348 346 357 352 345 340 346 341 336 318 340 15 43 2 347 348 303 289 297 280
89 101 103 95 71 70 46 37 27 19 15 7 6 359 0 357 359 350 350 332 331 332 338 339 343 348 346 339 338 339 339 329 315 315 330 335 357 339 328 324 298 290 300
95 100 102 92 76 63 43 24 17 13 11 1 0 353 347 342 336 332 322 331 342 335 333 322 332 328 336 328 327 328 326 318 315 309 298 300 321 313 309 313 311 289 248
112 104 77 62 53 24 22 26 14 18 8 345 348 331 328 326 324 317 317 302 307 315 328 333 315 318 317 317 319 325 321 319 320 326 322 280 316 310 305 302 300 300 288
144 138 134 66 0 2 6 355 349 3 10 11 336 330 329 329 327 332 322 313 311 306 321 323 317 313 312 311 316 315 312 318 318 317 318 318 309 298 296 300 302 297 296
158 150 155 166 254 294 327 341 344 350 355 335 321 314 326 321 327 332 331 327 318 305 322 321 319 320 313 307 314 307 305 309 309 313 311 312 309 302 295 294 294 295 297
153 144 152 228 288 347 19 333 329 323 333 324 316 325 325 330 333 337 337 333 314 311 317 316 318 319 314 315 310 305 301 299 305 313 304 298 303 300 295 292 291 291 290
160 141 268 326 21 26 5 347 338 338 334 336 326 331 336 342 343 344 346 340 307 312 319 327 332 326 322 315 313 311 304 294 297 313 308 300 295 291 292 288 286 291 287
150 235 29 29 30 30 0 355 351 348 341 337 338 342 341 340 339 349 349 346 321 325 333 326 328 324 317 314 316 323 314 312 316 314 310 301 295 287 286 289 276 285 297
99 65 51 42 8 13 10 357 35 3 345 344 345 342 336 339 347 347 348 350 344 337 329 321 315 312 313 319 320 318 308 318 317 312 307 296 306 303 288 278 282 284 283
86 67 44 13 355 347 351 351 355 9 6 356 353 340 339 345 342 345 343 347 337 335 335 332 329 318 318 320 317 314 313 309 308 312 314 317 293 272 283 296 285 275 285
80 62 34 10 9 323 322 335 337 343 0 7 348 348 346 341 341 342 338 335 335 330 329 328 326 318 321 322 320 313 308 303 297 302 309 317 312 282 272 283 288 279 284
102 72 359 359 9 1 342 344 0 347 10 351 341 339 335 333 334 335 336 334 329 328 329 331 327 322 322 321 317 312 306 303 305 296 298 284 287 271 264 280 280 282 284
108 0 351 356 6 2 1 3 1 346 333 326 326 327 332 336 333 336 333 330 331 334 336 333 328 328 324 326 327 323 319 316 310 306 295 291 288 285 278 264 288 276 269
129 356 355 2 1 2 7 12 5 354 329 334 334 342 347 345 335 336 336 336 340 342 344 340 339 338 334 336 335 335 332 323 294 304 310 308 293 276 267 269 269 267 265
131 359 0 357 354 360 5 3 4 4 0 354 350 348 348 351 346 345 339 340 340 347 348 345 342 340 335 332 334 336 336 318 323 322 305 298 278 285 288 285 273 266 263
54 13 8 355 356 355 0 358 2 2 358 352 346 347 350 350 346 343 343 340 343 347 346 345 345 340 336 332 328 329 325 323 311 311 299 293 301 295 292 283 276 267 262
62 359 2 352 349 354 352 354 358 358 356 353 352 349 348 347 346 346 344 345 346 347 345 341 337 337 334 326 319 316 313 316 306 297 299 299 292 295 294 287 279 269 262
38 343 352 350 353 352 349 355 358 358 355 350 348 347 345 344 345 347 348 347 348 346 341 337 334 331 328 323 316 313 306 305 293 292 287 295 294 297 302 306 286 266 258